| time (UTC) | temp F | wind direction | speed MPH | gust MPH | rain 1hr in | rain 24hr in | rain mn in | humidity % | barometer mb |
| 20260904011311 | 71 | 127 | 0.0 | 0.0 | 0.00 | 0.38 | 0.38 | 93 | 1015.2 |
| 20260904010811 | 71 | 127 | 0.0 | 0.0 | 0.00 | 0.38 | 0.38 | 93 | 1015.3 |
| 20260904010309 | 71 | 127 | 0.0 | 0.0 | 0.00 | 0.38 | 0.38 | 92 | 1015.0 |
| 20260904005808 | 71 | 127 | 0.0 | 0.0 | 0.00 | 0.38 | 0.38 | 92 | 1015.0 |
| 20260904005306 | 72 | 127 | 0.0 | 0.0 | 0.00 | 0.38 | 0.38 | 92 | 1015.0 |
| 20260904004759 | 72 | 127 | 0.0 | 0.0 | 0.00 | 0.38 | 0.38 | 92 | 1014.9 |
| 20260904004255 | 72 | 127 | 0.0 | 0.0 | 0.00 | 0.38 | 0.38 | 92 | 1014.7 |
| 20260904003750 | 72 | 127 | 0.0 | 0.0 | 0.00 | 0.38 | 0.38 | 92 | 1014.6 |
| 20260904003247 | 72 | 127 | 0.0 | 0.0 | 0.00 | 0.38 | 0.38 | 91 | 1014.8 |
| 20260904002742 | 73 | 127 | 0.0 | 0.0 | 0.00 | 0.38 | 0.38 | 91 | 1014.8 |
| 20260904002238 | 73 | 127 | 0.0 | 0.0 | 0.00 | 0.38 | 0.38 | 91 | 1014.7 |
| 20260904001732 | 73 | 127 | 0.0 | 0.0 | 0.00 | 0.38 | 0.38 | 90 | 1014.6 |
| 20260904001231 | 73 | 127 | 0.0 | 0.0 | 0.00 | 0.38 | 0.38 | 90 | 1014.7 |
| 20260904000726 | 73 | 129 | 0.0 | 0.0 | 0.00 | 0.38 | 0.38 | 89 | 1014.6 |
| 20260904000221 | 73 | 129 | 0.0 | 0.0 | 0.00 | 0.38 | 0.38 | 90 | 1014.8 |
| 20260903235716 | 74 | 129 | 0.0 | 0.0 | 0.00 | 0.38 | 0.38 | 90 | 1014.7 |
| 20260903235212 | 74 | 129 | 0.0 | 0.0 | 0.00 | 0.38 | 0.38 | 90 | 1014.6 |
| 20260903234706 | 74 | 129 | 0.0 | 0.0 | 0.00 | 0.38 | 0.38 | 89 | 1014.7 |
| 20260903234203 | 74 | 129 | 0.0 | 0.0 | 0.00 | 0.38 | 0.38 | 89 | 1014.8 |
| 20260903233658 | 74 | 130 | 0.0 | 0.0 | 0.00 | 0.38 | 0.38 | 90 | 1014.5 |
| 20260903233154 | 74 | 130 | 0.0 | 0.0 | 0.00 | 0.38 | 0.38 | 90 | 1014.7 |
| 20260903232652 | 74 | 130 | 0.0 | 0.0 | 0.00 | 0.38 | 0.38 | 90 | 1014.8 |
| 20260903232149 | 74 | 130 | 0.0 | 0.0 | 0.00 | 0.38 | 0.38 | 89 | 1014.5 |
| 20260903231648 | 74 | 129 | 0.0 | 0.0 | 0.00 | 0.38 | 0.38 | 88 | 1014.6 |
| 20260903231143 | 74 | 129 | 0.0 | 0.0 | 0.00 | 0.38 | 0.38 | 87 | 1014.7 |
| 20260903230639 | 75 | 129 | 0.0 | 0.0 | 0.00 | 0.38 | 0.38 | 87 | 1014.3 |
| 20260903230138 | 75 | 129 | 0.0 | 0.0 | 0.00 | 0.38 | 0.38 | 86 | 1014.4 |
| 20260903225635 | 75 | 145 | 0.0 | 1.0 | 0.00 | 0.38 | 0.38 | 85 | 1014.4 |
| 20260903225131 | 76 | 128 | 0.0 | 0.0 | 0.00 | 0.38 | 0.38 | 85 | 1014.3 |
| 20260903224627 | 77 | 129 | 0.0 | 0.0 | 0.00 | 0.38 | 0.38 | 87 | 1014.7 |
| 20260903224123 | 77 | 136 | 0.0 | 0.0 | 0.00 | 0.38 | 0.38 | 87 | 1014.7 |
| 20260903223624 | 77 | 130 | 0.0 | 0.0 | 0.00 | 0.38 | 0.38 | 88 | 1014.5 |
| 20260903223121 | 77 | 50 | 2.0 | 2.0 | 0.00 | 0.38 | 0.38 | 88 | 1014.5 |
| 20260903222617 | 77 | 124 | 0.0 | 0.0 | 0.00 | 0.38 | 0.38 | 89 | 1014.5 |
| 20260903222115 | 77 | 111 | 1.0 | 2.0 | 0.00 | 0.38 | 0.38 | 90 | 1014.4 |
| 20260903221611 | 77 | 135 | 0.0 | 0.0 | 0.00 | 0.38 | 0.38 | 91 | 1014.7 |
| 20260903221109 | 77 | 135 | 0.0 | 0.0 | 0.00 | 0.38 | 0.38 | 91 | 1014.6 |
| 20260903220608 | 77 | 135 | 0.0 | 0.0 | 0.00 | 0.38 | 0.38 | 91 | 1014.4 |
| 20260903215602 | 77 | 135 | 0.0 | 0.0 | 0.00 | 0.38 | 0.38 | 90 | 1014.6 |
| 20260903215101 | 77 | 135 | 0.0 | 0.0 | 0.00 | 0.38 | 0.38 | 90 | 1014.9 |
| 20260903214555 | 77 | 135 | 0.0 | 0.0 | 0.00 | 0.38 | 0.38 | 90 | 1014.7 |
| 20260903214050 | 77 | 135 | 0.0 | 0.0 | 0.00 | 0.38 | 0.38 | 90 | 1014.9 |
| 20260903213546 | 77 | 135 | 0.0 | 0.0 | 0.00 | 0.38 | 0.38 | 89 | 1014.8 |
| 20260903213041 | 77 | 135 | 0.0 | 0.0 | 0.00 | 0.38 | 0.38 | 89 | 1014.6 |
| 20260903212537 | 78 | 135 | 0.0 | 0.0 | 0.00 | 0.38 | 0.38 | 90 | 1014.6 |
| 20260903212032 | 78 | 136 | 0.0 | 0.0 | 0.00 | 0.38 | 0.38 | 90 | 1014.5 |
| 20260903211528 | 78 | 136 | 0.0 | 0.0 | 0.00 | 0.38 | 0.38 | 90 | 1014.3 |
| 20260903211024 | 78 | 132 | 0.0 | 0.0 | 0.00 | 0.38 | 0.38 | 91 | 1014.4 |
| 20260903210519 | 78 | 127 | 1.0 | 2.0 | 0.00 | 0.38 | 0.38 | 91 | 1014.5 |
| 20260903210015 | 78 | 137 | 0.0 | 0.0 | 0.00 | 0.38 | 0.38 | 91 | 1014.6 |
| 20260903205513 | 78 | 119 | 1.0 | 1.0 | 0.00 | 0.38 | 0.38 | 92 | 1014.6 |
| 20260903205008 | 77 | 131 | 0.0 | 0.0 | 0.00 | 0.38 | 0.38 | 93 | 1014.8 |
| 20260903204504 | 77 | 134 | 0.0 | 0.0 | 0.00 | 0.38 | 0.38 | 93 | 1014.7 |
| 20260903203959 | 77 | 135 | 0.0 | 0.0 | 0.00 | 0.38 | 0.38 | 93 | 1014.7 |
| 20260903203455 | 77 | 133 | 0.0 | 0.0 | 0.00 | 0.38 | 0.38 | 93 | 1015.1 |
| 20260903202954 | 76 | 129 | 0.0 | 0.0 | 0.00 | 0.38 | 0.38 | 94 | 1014.9 |
| 20260903202451 | 76 | 129 | 0.0 | 0.0 | 0.00 | 0.38 | 0.38 | 92 | 1015.1 |
| 20260903201950 | 76 | 129 | 0.0 | 0.0 | 0.00 | 0.38 | 0.38 | 93 | 1015.2 |
| 20260903201446 | 76 | 129 | 0.0 | 0.0 | 0.00 | 0.38 | 0.38 | 93 | 1014.9 |
| 20260903200944 | 76 | 129 | 0.0 | 0.0 | 0.00 | 0.38 | 0.38 | 93 | 1014.6 |
| 20260903200439 | 76 | 129 | 0.0 | 0.0 | 0.00 | 0.38 | 0.38 | 94 | 1014.8 |
| 20260903195929 | 76 | 129 | 0.0 | 0.0 | 0.00 | 0.38 | 0.38 | 94 | 1014.9 |
| 20260903195426 | 76 | 129 | 0.0 | 0.0 | 0.00 | 0.38 | 0.38 | 95 | 1014.6 |
| 20260903194925 | 76 | 129 | 0.0 | 0.0 | 0.00 | 0.38 | 0.38 | 95 | 1014.6 |
| 20260903194421 | 76 | 129 | 0.0 | 0.0 | 0.00 | 0.38 | 0.38 | 95 | 1014.6 |
| 20260903193916 | 76 | 129 | 0.0 | 0.0 | 0.00 | 0.38 | 0.38 | 93 | 1014.5 |
| 20260903193413 | 76 | 129 | 0.0 | 0.0 | 0.00 | 0.38 | 0.38 | 94 | 1014.5 |
| 20260903192907 | 76 | 129 | 0.0 | 0.0 | 0.00 | 0.38 | 0.38 | 93 | 1014.6 |
| 20260903192404 | 76 | 129 | 0.0 | 0.0 | 0.00 | 0.38 | 0.38 | 92 | 1014.6 |
| 20260903191900 | 76 | 129 | 0.0 | 0.0 | 0.00 | 0.38 | 0.38 | 93 | 1014.7 |
| 20260903191355 | 76 | 129 | 0.0 | 0.0 | 0.00 | 0.38 | 0.38 | 93 | 1014.7 |
| 20260903190855 | 76 | 129 | 0.0 | 0.0 | 0.00 | 0.38 | 0.38 | 93 | 1014.7 |
| 20260903190349 | 76 | 129 | 0.0 | 0.0 | 0.00 | 0.38 | 0.38 | 93 | 1014.8 |
| 20260903185844 | 76 | 129 | 0.0 | 0.0 | 0.00 | 0.38 | 0.38 | 95 | 1014.9 |
| 20260903185344 | 76 | 129 | 0.0 | 0.0 | 0.00 | 0.38 | 0.38 | 96 | 1015.3 |
| 20260903184840 | 76 | 129 | 1.0 | 2.0 | 0.00 | 0.38 | 0.38 | 96 | 1015.1 |
| 20260903184337 | 75 | 129 | 0.0 | 0.0 | 0.00 | 0.38 | 0.38 | 95 | 1014.7 |
| 20260903183831 | 75 | 129 | 0.0 | 0.0 | 0.00 | 0.38 | 0.38 | 95 | 1014.8 |
| 20260903183326 | 75 | 129 | 0.0 | 0.0 | 0.00 | 0.38 | 0.38 | 94 | 1014.6 |
| 20260903182819 | 75 | 129 | 0.0 | 0.0 | 0.00 | 0.38 | 0.38 | 96 | 1014.6 |
| 20260903182313 | 75 | 129 | 0.0 | 0.0 | 0.00 | 0.38 | 0.38 | 96 | 1014.8 |
| 20260903181808 | 75 | 130 | 0.0 | 0.0 | 0.00 | 0.38 | 0.38 | 97 | 1015.0 |
| 20260903181303 | 75 | 129 | 0.0 | 0.0 | 0.00 | 0.38 | 0.38 | 97 | 1015.1 |
| 20260903180757 | 74 | 129 | 0.0 | 0.0 | 0.00 | 0.38 | 0.38 | 97 | 1014.9 |
| 20260903180257 | 74 | 129 | 0.0 | 0.0 | 0.00 | 0.38 | 0.38 | 97 | 1015.5 |
| 20260903175756 | 74 | 129 | 0.0 | 0.0 | 0.00 | 0.38 | 0.38 | 98 | 1015.8 |
| 20260903175255 | 74 | 129 | 0.0 | 0.0 | 0.00 | 0.38 | 0.38 | 98 | 1016.1 |
| 20260903174754 | 74 | 129 | 0.0 | 0.0 | 0.00 | 0.38 | 0.38 | 98 | 1015.7 |
| 20260903174250 | 73 | 130 | 0.0 | 0.0 | 0.00 | 0.38 | 0.38 | 99 | 1015.1 |
| 20260903173745 | 72 | 129 | 0.0 | 0.0 | 0.00 | 0.38 | 0.38 | 99 | 1014.9 |
| 20260903173241 | 72 | 129 | 0.0 | 0.0 | 0.07 | 0.38 | 0.38 | 99 | 1015.1 |
| 20260903172736 | 72 | 129 | 0.0 | 0.0 | 0.07 | 0.38 | 0.38 | 98 | 1015.4 |
| 20260903172231 | 72 | 130 | 0.0 | 0.0 | 0.00 | 0.37 | 0.37 | 98 | 1015.2 |
| 20260903171726 | 72 | 130 | 0.0 | 0.0 | 0.00 | 0.37 | 0.37 | 99 | 1015.1 |
| 20260903171222 | 72 | 130 | 0.0 | 0.0 | 0.00 | 0.37 | 0.37 | 99 | 1015.4 |
| 20260903170720 | 71 | 130 | 0.0 | 0.0 | 0.00 | 0.37 | 0.37 | 98 | 1015.5 |
| 20260903170216 | 71 | 132 | 0.0 | 0.0 | 0.05 | 0.37 | 0.37 | 99 | 1015.7 |
| 20260903165714 | 71 | 132 | 0.0 | 0.0 | 0.05 | 0.37 | 0.37 | 98 | 1016.2 |
| 20260903165209 | 71 | 137 | 0.0 | 0.0 | 0.00 | 0.36 | 0.36 | 99 | 1016.5 |
| 20260903164703 | 71 | 129 | 0.0 | 0.0 | 0.00 | 0.36 | 0.36 | 99 | 1016.8 |
| 20260903164200 | 71 | 129 | 0.0 | 0.0 | 0.00 | 0.36 | 0.36 | 99 | 1016.9 |
| 20260903163659 | 70 | 130 | 0.0 | 0.0 | 0.00 | 0.36 | 0.36 | 99 | 1017.0 |
| 20260903163156 | 70 | 131 | 0.0 | 0.0 | 0.00 | 0.36 | 0.36 | 99 | 1017.2 |
| 20260903162651 | 70 | 131 | 0.0 | 0.0 | 0.07 | 0.36 | 0.36 | 99 | 1016.9 |
| 20260903162147 | 70 | 141 | 0.0 | 0.0 | 0.19 | 0.36 | 0.36 | 99 | 1017.0 |
| 20260903161643 | 70 | 141 | 0.0 | 0.0 | 0.17 | 0.35 | 0.35 | 99 | 1017.0 |
| 20260903161137 | 69 | 141 | 0.0 | 0.0 | 0.05 | 0.33 | 0.33 | 99 | 1016.8 |
| 20260903160632 | 69 | 141 | 0.0 | 0.0 | 0.07 | 0.32 | 0.32 | 99 | 1016.7 |
| 20260903160127 | 69 | 141 | 0.0 | 0.0 | 0.14 | 0.32 | 0.32 | 99 | 1016.8 |
| 20260903155625 | 69 | 142 | 0.0 | 0.0 | 0.07 | 0.31 | 0.31 | 98 | 1017.8 |
| 20260903155121 | 69 | 143 | 0.0 | 0.0 | 0.05 | 0.30 | 0.30 | 98 | 1017.9 |
| 20260903154617 | 69 | 143 | 0.0 | 0.0 | 0.12 | 0.30 | 0.30 | 98 | 1017.9 |
| 20260903154113 | 69 | 143 | 0.0 | 0.0 | 0.12 | 0.29 | 0.29 | 98 | 1017.2 |
| 20260903153608 | 69 | 143 | 0.0 | 0.0 | 0.05 | 0.28 | 0.28 | 98 | 1017.1 |
| 20260903153104 | 69 | 143 | 0.0 | 0.0 | 0.05 | 0.28 | 0.28 | 98 | 1017.1 |
| 20260903152559 | 69 | 144 | 0.0 | 0.0 | 0.07 | 0.27 | 0.27 | 98 | 1016.9 |
| 20260903152056 | 69 | 144 | 0.0 | 0.0 | 0.19 | 0.27 | 0.27 | 98 | 1016.5 |
| 20260903151555 | 68 | 144 | 0.0 | 0.0 | 0.17 | 0.26 | 0.26 | 98 | 1017.0 |
| 20260903151051 | 68 | 142 | 0.0 | 0.0 | 0.19 | 0.25 | 0.25 | 98 | 1017.5 |
| 20260903150549 | 68 | 141 | 0.0 | 0.0 | 0.07 | 0.23 | 0.23 | 98 | 1017.6 |
| 20260903150046 | 68 | 139 | 0.0 | 0.0 | 0.00 | 0.22 | 0.22 | 98 | 1017.6 |
| 20260903145540 | 68 | 139 | 0.0 | 0.0 | 0.00 | 0.22 | 0.22 | 98 | 1017.0 |
| 20260903145035 | 68 | 139 | 0.0 | 0.0 | 0.05 | 0.22 | 0.22 | 97 | 1016.7 |
| 20260903144534 | 68 | 139 | 0.0 | 0.0 | 0.47 | 0.22 | 0.22 | 97 | 1016.6 |
| 20260903144031 | 67 | 139 | 0.0 | 0.0 | 0.42 | 0.21 | 0.21 | 97 | 1016.6 |
| 20260903143526 | 67 | 133 | 0.0 | 0.0 | 0.00 | 0.14 | 0.14 | 96 | 1016.7 |
| 20260903143022 | 67 | 135 | 0.0 | 0.0 | 0.00 | 0.14 | 0.14 | 96 | 1016.9 |
| 20260903142517 | 67 | 140 | 0.0 | 0.0 | 0.00 | 0.14 | 0.14 | 96 | 1016.7 |
| 20260903142013 | 67 | 132 | 0.0 | 0.0 | 0.07 | 0.14 | 0.14 | 95 | 1016.6 |
| 20260903141509 | 67 | 140 | 0.0 | 0.0 | 0.24 | 0.14 | 0.14 | 95 | 1016.9 |
| 20260903140958 | 68 | 140 | 0.0 | 0.0 | 0.17 | 0.13 | 0.13 | 94 | 1017.1 |
| 20260903140454 | 68 | 125 | 0.0 | 0.0 | 0.07 | 0.10 | 0.10 | 93 | 1016.7 |
| 20260903135949 | 68 | 131 | 0.0 | 0.0 | 0.07 | 0.10 | 0.10 | 93 | 1016.6 |
| 20260903135444 | 68 | 134 | 1.0 | 2.0 | 0.00 | 0.09 | 0.09 | 93 | 1016.8 |
| 20260903134939 | 68 | 177 | 0.0 | 0.0 | 0.12 | 0.09 | 0.09 | 94 | 1016.9 |
| 20260903134438 | 69 | 137 | 0.0 | 0.0 | 0.24 | 0.09 | 0.09 | 97 | 1017.1 |
| 20260903133935 | 69 | 104 | 1.0 | 2.0 | 0.24 | 0.07 | 0.07 | 97 | 1017.2 |
| 20260903133431 | 69 | 145 | 0.0 | 0.0 | 0.31 | 0.05 | 0.05 | 96 | 1016.8 |
| 20260903132926 | 69 | 147 | 0.0 | 0.0 | 0.19 | 0.03 | 0.03 | 95 | 1016.6 |
| 20260903132422 | 70 | 151 | 1.0 | 1.0 | 0.00 | 0.00 | 0.00 | 93 | 1016.4 |
| 20260903131916 | 71 | 140 | 0.0 | 0.0 | 0.00 | 0.00 | 0.00 | 92 | 1016.7 |
| 20260903131411 | 72 | 140 | 0.0 | 0.0 | 0.00 | 0.00 | 0.00 | 92 | 1016.7 |
| 20260903130909 | 73 | 150 | 0.0 | 0.0 | 0.00 | 0.00 | 0.00 | 90 | 1016.3 |
| 20260903130405 | 73 | 145 | 0.0 | 1.0 | 0.00 | 0.00 | 0.00 | 91 | 1016.4 |
| 20260903125904 | 72 | 148 | 0.0 | 1.0 | 0.00 | 0.00 | 0.00 | 96 | 1016.0 |
| 20260903125359 | 72 | 152 | 0.0 | 0.0 | 0.00 | 0.00 | 0.00 | 97 | 1015.4 |
| 20260903124858 | 72 | 152 | 0.0 | 0.0 | 0.00 | 0.00 | 0.00 | 97 | 1014.5 |
| 20260903124354 | 72 | 152 | 0.0 | 0.0 | 0.00 | 0.00 | 0.00 | 97 | 1014.1 |
| 20260903123852 | 72 | 152 | 0.0 | 0.0 | 0.00 | 0.00 | 0.00 | 97 | 1014.0 |
| 20260903123346 | 72 | 152 | 0.0 | 0.0 | 0.00 | 0.00 | 0.00 | 97 | 1013.9 |
| 20260903122845 | 71 | 152 | 0.0 | 0.0 | 0.00 | 0.00 | 0.00 | 97 | 1013.9 |
| 20260903122340 | 71 | 152 | 0.0 | 0.0 | 0.00 | 0.00 | 0.00 | 97 | 1014.3 |
| 20260903121839 | 71 | 152 | 0.0 | 0.0 | 0.00 | 0.00 | 0.00 | 97 | 1014.2 |
| 20260903121334 | 71 | 152 | 0.0 | 0.0 | 0.00 | 0.00 | 0.00 | 97 | 1014.4 |
| 20260903120830 | 71 | 152 | 0.0 | 0.0 | 0.00 | 0.00 | 0.00 | 97 | 1014.2 |
| 20260903120329 | 70 | 152 | 0.0 | 0.0 | 0.00 | 0.00 | 0.00 | 97 | 1014.1 |
| 20260903115827 | 70 | 152 | 0.0 | 0.0 | 0.00 | 0.00 | 0.00 | 97 | 1014.1 |
| 20260903115322 | 70 | 152 | 0.0 | 0.0 | 0.00 | 0.00 | 0.00 | 97 | 1014.2 |
| 20260903114822 | 70 | 152 | 0.0 | 0.0 | 0.00 | 0.00 | 0.00 | 97 | 1014.3 |
| 20260903114318 | 70 | 152 | 0.0 | 0.0 | 0.00 | 0.00 | 0.00 | 97 | 1014.1 |
| 20260903113813 | 70 | 152 | 0.0 | 0.0 | 0.00 | 0.00 | 0.00 | 97 | 1014.2 |
| 20260903113309 | 70 | 152 | 0.0 | 0.0 | 0.00 | 0.00 | 0.00 | 97 | 1014.2 |
| 20260903112804 | 70 | 152 | 0.0 | 0.0 | 0.00 | 0.00 | 0.00 | 97 | 1014.3 |
| 20260903112300 | 70 | 152 | 0.0 | 0.0 | 0.00 | 0.00 | 0.00 | 97 | 1014.2 |
| 20260903111758 | 70 | 152 | 0.0 | 0.0 | 0.00 | 0.00 | 0.00 | 97 | 1014.4 |
| 20260903111254 | 70 | 152 | 0.0 | 0.0 | 0.00 | 0.00 | 0.00 | 97 | 1014.4 |
| 20260903110750 | 70 | 152 | 0.0 | 0.0 | 0.00 | 0.00 | 0.00 | 97 | 1014.3 |
| 20260903110246 | 70 | 152 | 0.0 | 0.0 | 0.00 | 0.00 | 0.00 | 97 | 1014.2 |
| 20260903105746 | 70 | 152 | 0.0 | 0.0 | 0.00 | 0.00 | 0.00 | 97 | 1014.2 |
| 20260903105241 | 70 | 152 | 0.0 | 0.0 | 0.00 | 0.00 | 0.00 | 97 | 1014.2 |
| 20260903104740 | 70 | 152 | 0.0 | 0.0 | 0.00 | 0.00 | 0.00 | 97 | 1014.1 |
| 20260903104236 | 70 | 152 | 0.0 | 0.0 | 0.00 | 0.00 | 0.00 | 97 | 1014.0 |
| 20260903103731 | 70 | 152 | 0.0 | 0.0 | 0.00 | 0.00 | 0.00 | 97 | 1014.1 |
| 20260903103227 | 70 | 152 | 0.0 | 0.0 | 0.00 | 0.00 | 0.00 | 97 | 1014.2 |
| 20260903102722 | 71 | 152 | 0.0 | 0.0 | 0.00 | 0.00 | 0.00 | 97 | 1014.3 |
| 20260903102217 | 71 | 152 | 0.0 | 0.0 | 0.00 | 0.00 | 0.00 | 97 | 1014.2 |
| 20260903101716 | 71 | 152 | 0.0 | 0.0 | 0.00 | 0.00 | 0.00 | 97 | 1014.2 |
| 20260903101212 | 71 | 152 | 0.0 | 0.0 | 0.00 | 0.00 | 0.00 | 97 | 1014.2 |
| 20260903100711 | 71 | 152 | 0.0 | 0.0 | 0.00 | 0.00 | 0.00 | 97 | 1014.3 |
| 20260903100206 | 71 | 152 | 0.0 | 0.0 | 0.00 | 0.00 | 0.00 | 97 | 1014.4 |
| 20260903095703 | 71 | 152 | 0.0 | 0.0 | 0.00 | 0.00 | 0.00 | 97 | 1014.6 |
| 20260903095158 | 71 | 152 | 0.0 | 0.0 | 0.00 | 0.00 | 0.00 | 97 | 1014.7 |
| 20260903094653 | 71 | 152 | 0.0 | 0.0 | 0.00 | 0.00 | 0.00 | 97 | 1014.6 |
| 20260903094148 | 71 | 152 | 0.0 | 0.0 | 0.00 | 0.00 | 0.00 | 97 | 1014.5 |
| 20260903093643 | 71 | 152 | 0.0 | 0.0 | 0.00 | 0.00 | 0.00 | 97 | 1014.4 |
| 20260903093138 | 71 | 152 | 0.0 | 0.0 | 0.00 | 0.00 | 0.00 | 97 | 1014.6 |
| 20260903092633 | 71 | 152 | 0.0 | 0.0 | 0.00 | 0.00 | 0.00 | 97 | 1014.5 |
| 20260903092128 | 71 | 152 | 0.0 | 0.0 | 0.00 | 0.00 | 0.00 | 96 | 1014.5 |
| 20260903091626 | 71 | 152 | 0.0 | 0.0 | 0.00 | 0.00 | 0.00 | 96 | 1014.6 |
| 20260903091120 | 71 | 152 | 0.0 | 0.0 | 0.00 | 0.00 | 0.00 | 96 | 1014.5 |
| 20260903090616 | 71 | 152 | 0.0 | 0.0 | 0.00 | 0.00 | 0.00 | 96 | 1014.4 |
| 20260903090115 | 71 | 152 | 0.0 | 0.0 | 0.00 | 0.00 | 0.00 | 96 | 1014.4 |
| 20260903085614 | 71 | 152 | 0.0 | 0.0 | 0.00 | 0.00 | 0.00 | 96 | 1014.3 |
| 20260903085110 | 71 | 152 | 0.0 | 0.0 | 0.00 | 0.00 | 0.00 | 96 | 1014.2 |
| 20260903084607 | 71 | 152 | 0.0 | 0.0 | 0.00 | 0.00 | 0.00 | 96 | 1014.4 |
| 20260903084102 | 71 | 152 | 0.0 | 0.0 | 0.00 | 0.00 | 0.00 | 96 | 1014.4 |
| 20260903083558 | 71 | 152 | 0.0 | 0.0 | 0.00 | 0.00 | 0.00 | 96 | 1014.3 |
| 20260903083057 | 72 | 152 | 0.0 | 0.0 | 0.00 | 0.00 | 0.00 | 95 | 1014.3 |
| 20260903082551 | 72 | 152 | 0.0 | 0.0 | 0.00 | 0.00 | 0.00 | 95 | 1014.5 |
| 20260903082047 | 72 | 152 | 0.0 | 0.0 | 0.00 | 0.00 | 0.00 | 95 | 1014.4 |
| 20260903081542 | 72 | 152 | 0.0 | 0.0 | 0.00 | 0.00 | 0.00 | 95 | 1014.4 |
| 20260903081038 | 72 | 152 | 0.0 | 0.0 | 0.00 | 0.00 | 0.00 | 95 | 1014.3 |
| 20260903080534 | 72 | 152 | 0.0 | 0.0 | 0.00 | 0.00 | 0.00 | 95 | 1014.4 |
| 20260903080032 | 72 | 152 | 0.0 | 0.0 | 0.00 | 0.00 | 0.00 | 96 | 1014.5 |
| 20260903075526 | 72 | 152 | 0.0 | 0.0 | 0.00 | 0.00 | 0.00 | 96 | 1014.5 |
| 20260903075021 | 72 | 152 | 0.0 | 0.0 | 0.00 | 0.00 | 0.00 | 96 | 1014.5 |
| 20260903074520 | 72 | 152 | 0.0 | 0.0 | 0.00 | 0.00 | 0.00 | 96 | 1014.4 |
| 20260903074014 | 73 | 152 | 0.0 | 0.0 | 0.00 | 0.00 | 0.00 | 96 | 1014.4 |
| 20260903073510 | 73 | 152 | 0.0 | 0.0 | 0.00 | 0.00 | 0.00 | 95 | 1014.4 |
| 20260903073006 | 73 | 152 | 0.0 | 0.0 | 0.00 | 0.00 | 0.00 | 95 | 1014.6 |
| 20260903072501 | 73 | 152 | 0.0 | 0.0 | 0.00 | 0.00 | 0.00 | 96 | 1014.4 |
| 20260903071958 | 73 | 152 | 0.0 | 0.0 | 0.00 | 0.00 | 0.00 | 96 | 1014.6 |
| 20260903071454 | 73 | 152 | 0.0 | 0.0 | 0.00 | 0.00 | 0.00 | 96 | 1014.7 |
| 20260903070949 | 73 | 152 | 0.0 | 0.0 | 0.00 | 0.00 | 0.00 | 96 | 1014.4 |
| 20260903070449 | 73 | 152 | 0.0 | 0.0 | 0.00 | 0.00 | 0.00 | 96 | 1014.5 |
| 20260903065949 | 73 | 152 | 0.0 | 0.0 | 0.00 | 0.00 | 0.00 | 96 | 1014.3 |
| 20260903065444 | 73 | 152 | 0.0 | 0.0 | 0.00 | 0.00 | 0.00 | 96 | 1014.5 |
| 20260903064943 | 73 | 152 | 0.0 | 0.0 | 0.00 | 0.00 | 0.00 | 96 | 1014.5 |
| 20260903064438 | 73 | 152 | 0.0 | 0.0 | 0.00 | 0.00 | 0.00 | 96 | 1014.7 |
| 20260903063934 | 73 | 152 | 0.0 | 0.0 | 0.00 | 0.00 | 0.00 | 96 | 1014.7 |
| 20260903063430 | 73 | 152 | 0.0 | 0.0 | 0.00 | 0.00 | 0.00 | 96 | 1014.5 |
| 20260903062925 | 73 | 152 | 0.0 | 0.0 | 0.00 | 0.00 | 0.00 | 95 | 1014.5 |
| 20260903062419 | 73 | 152 | 0.0 | 0.0 | 0.00 | 0.00 | 0.00 | 95 | 1014.6 |
| 20260903061915 | 73 | 152 | 0.0 | 0.0 | 0.00 | 0.00 | 0.00 | 95 | 1014.8 |
| 20260903061414 | 73 | 152 | 0.0 | 0.0 | 0.00 | 0.00 | 0.00 | 95 | 1014.5 |
| 20260903060910 | 73 | 152 | 0.0 | 0.0 | 0.00 | 0.00 | 0.00 | 95 | 1014.6 |
| 20260903060410 | 73 | 152 | 0.0 | 0.0 | 0.00 | 0.00 | 0.00 | 95 | 1014.7 |
| 20260903055908 | 73 | 152 | 0.0 | 0.0 | 0.00 | 0.00 | 0.00 | 95 | 1014.7 |
| 20260903055406 | 73 | 152 | 0.0 | 0.0 | 0.00 | 0.00 | 0.00 | 95 | 1014.5 |
| 20260903054902 | 73 | 152 | 0.0 | 0.0 | 0.00 | 0.00 | 0.00 | 95 | 1014.8 |
| 20260903054402 | 73 | 152 | 0.0 | 0.0 | 0.00 | 0.00 | 0.00 | 95 | 1014.8 |
| 20260903053858 | 73 | 152 | 0.0 | 0.0 | 0.00 | 0.00 | 0.00 | 95 | 1014.8 |
| 20260903053352 | 73 | 152 | 0.0 | 0.0 | 0.00 | 0.00 | 0.00 | 95 | 1014.8 |
| 20260903052848 | 73 | 152 | 0.0 | 0.0 | 0.00 | 0.00 | 0.00 | 94 | 1014.8 |
| 20260903052344 | 73 | 152 | 0.0 | 0.0 | 0.00 | 0.00 | 0.00 | 94 | 1014.7 |
| 20260903051840 | 73 | 152 | 0.0 | 0.0 | 0.00 | 0.00 | 0.00 | 94 | 1014.7 |
| 20260903051335 | 73 | 152 | 0.0 | 0.0 | 0.00 | 0.00 | 0.00 | 94 | 1014.6 |
| 20260903050830 | 74 | 152 | 0.0 | 0.0 | 0.00 | 0.00 | 0.00 | 94 | 1014.6 |
| 20260903050329 | 74 | 152 | 0.0 | 0.0 | 0.00 | 0.00 | 0.00 | 94 | 1014.7 |
| 20260903045824 | 74 | 152 | 0.0 | 0.0 | 0.00 | 0.00 | 0.00 | 94 | 1014.7 |
| 20260903045320 | 74 | 152 | 0.0 | 0.0 | 0.00 | 0.00 | 0.00 | 94 | 1014.6 |
| 20260903044816 | 74 | 152 | 0.0 | 0.0 | 0.00 | 0.00 | 0.00 | 94 | 1014.6 |
| 20260903044312 | 74 | 152 | 0.0 | 0.0 | 0.00 | 0.00 | 0.00 | 94 | 1014.5 |
| 20260903043808 | 74 | 152 | 0.0 | 0.0 | 0.00 | 0.00 | 0.00 | 93 | 1014.5 |
| 20260903043308 | 75 | 152 | 0.0 | 0.0 | 0.00 | 0.00 | 0.00 | 93 | 1014.5 |
| 20260903042807 | 75 | 152 | 0.0 | 0.0 | 0.00 | 0.00 | 0.00 | 93 | 1014.4 |
| 20260903042305 | 75 | 152 | 0.0 | 0.0 | 0.00 | 0.00 | 0.00 | 93 | 1014.3 |
| 20260903041758 | 75 | 152 | 0.0 | 0.0 | 0.00 | 0.00 | 0.00 | 93 | 1014.3 |
| 20260903041255 | 75 | 152 | 0.0 | 0.0 | 0.00 | 0.00 | 0.00 | 93 | 1014.2 |
| 20260903040754 | 75 | 152 | 0.0 | 0.0 | 0.00 | 0.00 | 0.00 | 93 | 1014.3 |
| 20260903040249 | 75 | 152 | 0.0 | 0.0 | 0.00 | 0.00 | 0.00 | 93 | 1014.3 |
| 20260903035745 | 75 | 152 | 0.0 | 0.0 | 0.00 | 0.00 | 0.00 | 93 | 1014.1 |
| 20260903035241 | 75 | 152 | 0.0 | 0.0 | 0.00 | 0.00 | 0.00 | 93 | 1014.4 |
| 20260903034740 | 75 | 152 | 0.0 | 0.0 | 0.00 | 0.00 | 0.00 | 93 | 1014.3 |
| 20260903034236 | 75 | 152 | 0.0 | 0.0 | 0.00 | 0.00 | 0.00 | 93 | 1014.3 |
| 20260903033730 | 75 | 152 | 0.0 | 0.0 | 0.00 | 0.00 | 0.00 | 92 | 1014.2 |
| 20260903033225 | 75 | 152 | 0.0 | 0.0 | 0.00 | 0.00 | 0.00 | 92 | 1014.1 |
| 20260903032714 | 76 | 152 | 0.0 | 0.0 | 0.00 | 0.00 | 0.00 | 92 | 1014.1 |
| 20260903032211 | 76 | 152 | 0.0 | 0.0 | 0.00 | 0.00 | 0.00 | 91 | 1014.2 |
| 20260903031706 | 76 | 152 | 0.0 | 0.0 | 0.00 | 0.00 | 0.00 | 91 | 1014.2 |
| 20260903031200 | 76 | 152 | 0.0 | 0.0 | 0.00 | 0.00 | 0.00 | 91 | 1014.3 |
| 20260903030656 | 76 | 152 | 0.0 | 0.0 | 0.00 | 0.00 | 0.00 | 91 | 1014.2 |
| 20260903030151 | 76 | 152 | 0.0 | 0.0 | 0.00 | 0.00 | 0.00 | 90 | 1014.3 |
| 20260903025646 | 76 | 152 | 0.0 | 0.0 | 0.00 | 0.00 | 0.00 | 90 | 1014.3 |
| 20260903025142 | 77 | 152 | 0.0 | 0.0 | 0.00 | 0.00 | 0.00 | 90 | 1014.2 |
| 20260903024637 | 77 | 152 | 0.0 | 0.0 | 0.00 | 0.00 | 0.00 | 90 | 1014.3 |
| 20260903024136 | 77 | 152 | 0.0 | 0.0 | 0.00 | 0.00 | 0.00 | 89 | 1014.2 |
| 20260903023632 | 77 | 152 | 0.0 | 0.0 | 0.00 | 0.00 | 0.00 | 89 | 1014.3 |
| 20260903023131 | 77 | 152 | 0.0 | 0.0 | 0.00 | 0.00 | 0.00 | 89 | 1014.2 |
| 20260903022626 | 77 | 152 | 0.0 | 0.0 | 0.00 | 0.00 | 0.00 | 88 | 1014.1 |
| 20260903022125 | 77 | 152 | 0.0 | 0.0 | 0.00 | 0.00 | 0.00 | 88 | 1014.2 |
| 20260903021620 | 77 | 152 | 0.0 | 0.0 | 0.00 | 0.00 | 0.00 | 88 | 1014.2 |
| 20260903021119 | 77 | 152 | 0.0 | 0.0 | 0.00 | 0.00 | 0.00 | 88 | 1014.2 |
| 20260903020615 | 78 | 152 | 0.0 | 0.0 | 0.00 | 0.00 | 0.00 | 87 | 1014.2 |
| 20260903020109 | 78 | 152 | 0.0 | 0.0 | 0.00 | 0.00 | 0.00 | 87 | 1014.2 |
| 20260903015605 | 78 | 152 | 0.0 | 0.0 | 0.00 | 0.00 | 0.00 | 87 | 1014.0 |
| 20260903015100 | 78 | 152 | 0.0 | 0.0 | 0.00 | 0.00 | 0.00 | 86 | 1014.1 |
| 20260903014555 | 78 | 152 | 0.0 | 0.0 | 0.00 | 0.00 | 0.00 | 86 | 1014.1 |
| 20260903014049 | 79 | 152 | 0.0 | 0.0 | 0.00 | 0.00 | 0.00 | 86 | 1014.4 |
| 20260903013549 | 79 | 152 | 0.0 | 0.0 | 0.00 | 0.00 | 0.00 | 85 | 1014.1 |
| 20260903013043 | 79 | 152 | 0.0 | 0.0 | 0.00 | 0.00 | 0.00 | 85 | 1013.9 |
| 20260903012543 | 79 | 152 | 0.0 | 0.0 | 0.00 | 0.00 | 0.00 | 84 | 1014.0 |
| 20260903012042 | 79 | 152 | 0.0 | 0.0 | 0.00 | 0.00 | 0.00 | 84 | 1013.9 |
| 20260903011536 | 80 | 152 | 0.0 | 0.0 | 0.00 | 0.00 | 0.00 | 84 | 1013.8 |